Regional Weather Roundup
Issued by NWS San Angelo, TX

Home | Current Version | Previous Version | Text Only | Print | Product List | Glossary On
Versions: 1 2 3 4 5 6 7 8 9 10 11 12 13 14 15 16 17 18 19 20 21 22 23 24 25 26 27 28 29 30 31 32 33 34 35 36 37 38 39 40 41 42 43 44 45 46 47 48 49 50
000
ASUS44 KSJT 290811
RWRSJT
WEST CENTRAL TEXAS REGIONAL WEATHER ROUNDUP
NATIONAL WEATHER SERVICE SAN ANGELO TX
300 AM CDT FRI JUL 29 2016

NOTE: "FAIR" INDICATES FEW OR NO CLOUDS BELOW 12,000 FEET WITH NO
SIGNIFICANT WEATHER AND/OR OBSTRUCTIONS TO VISIBILITY.

TXZ049-054-064>066-071>073-076>078-098-099-113-114-127-128-139-140-
154-155-168>170-290900
...LOCATIONS ACROSS WEST CENTRAL TEXAS...

CITY           SKY/WX    TMP DP  RH WIND       PRES   REMARKS
SAN ANGELO     CLEAR     76  66  71 S9        30.00F
ABILENE        CLEAR     78  67  68 S9        30.00R
DYESS AFB      CLEAR     79  67  66 S10       29.97F
JUNCTION       CLEAR     75  67  76 CALM      30.03F
SWEETWATER     CLEAR     76  63  64 S9        30.04S
BROWNWOOD      CLOUDY    77  68  73 SE6       30.00S
COLEMAN        PTSUNNY   76  66  71 S5        30.01S
SONORA         PTCLDY    73  66  78 S5        30.08F
OZONA          FAIR      72  64  78 S7        30.08F
BRADY          NOT AVBL
$$

TEXAS PANHANDLE/OKLAHOMA PANHANDLE

CITY           SKY/WX    TMP DP  RH WIND       PRES   REMARKS
AMARILLO       CLEAR     74  61  63 S10       30.08S
BORGER         CLEAR     78  63  59 S3        30.05S
CANADIAN       CLEAR     74  65  74 CALM      30.00F
DALHART        CLEAR     75  56  51 NE7       30.13F
DUMAS          SUNNY     69  59  69 CALM      30.10R
GUYMON         NOT AVBL
HEREFORD       SUNNY     75  60  60 SW8       30.10R
PAMPA          SUNNY     75  64  68 S8        30.07F
PERRYTON       MOCLDY    76  65  68 NW10      30.09R
$$

SOUTHERN PANHANDLE/SOUTH PLAINS/ROLLING PLAINS

CITY           SKY/WX    TMP DP  RH WIND       PRES   REMARKS
LUBBOCK        CLEAR     76  61  59 SW10      30.06F
SNYDER           N/A     75  65  72 SW3       30.02S
CHILDRESS      CLEAR     76  64  66 S6        29.98F
SEMINOLE       SUNNY     71  62  73 CALM      30.09R
$$

PERMIAN BASIN

CITY           SKY/WX    TMP DP  RH WIND       PRES   REMARKS
MIDLAND        PTCLDY    76  67  73 S7        30.05S
ODESSA         PTCLDY    76  65  68 S9        30.06S
WINK           CLOUDY    75  66  73 SE3       30.03S
$$

FAR WEST/SOUTHWEST MOUNTAINS/TRANS PECOS

CITY           SKY/WX    TMP DP  RH WIND       PRES   REMARKS
ALPINE         SUNNY     70  58  64 S6        30.19F
DRYDEN           N/A     74  68  81 NE6       30.01F
EL PASO        CLEAR     83  54  36 SE9       30.06S
FORT STOCKTON  CLEAR     75  63  66 S9        30.05S
GUADALUPE PASS CLEAR     70  56  61 NE12      30.22S
MARFA          CLEAR     64  55  72 E6        30.18F
PECOS          CLOUDY    76  64  65 E8        30.03S
$$

DALLAS/FORT WORTH METROPLEX

CITY           SKY/WX    TMP DP  RH WIND       PRES   REMARKS
DFW AIRPORT    PTCLDY    79  70  74 S8        29.94F
FTW MEACHAM    CLEAR     80  70  71 MISG      29.94F
DAL-EXECUTIVE  PTCLDY    77  70  79 S7        29.95F
GRAND PRAIRIE  PTCLDY    78  70  75 S8        29.96F
ADDISON        CLEAR     80  73  79 S8        29.96F
MESQUITE       PTSUNNY   75  73  95 SE7       29.96F
LANCASTER      PTSUNNY   76  72  85 S5        29.97F
$$

NORTH CENTRAL TEXAS

CITY           SKY/WX    TMP DP  RH WIND       PRES   REMARKS
SHRMAN/DENISON SUNNY     77  73  86 S6        29.97S
GAINESVILLE    CLEAR     74  71  88 S5        29.97F
BRIDGEPORT     CLOUDY    73  73 100 CALM      29.97S
DENTON         PTCLDY    76  73  91 S7        29.94F
WAXAHACHIE     CLOUDY    75  73  93 S5        29.98F
GRANBURY       PTSUNNY   79  71  76 E6        29.97S
$$

WESTERN NORTH TEXAS

CITY           SKY/WX    TMP DP  RH WIND       PRES   REMARKS
WICHITA FALLS  CLEAR     74  69  85 S9        29.94R
VERNON         SUNNY     78  65  63 S5        29.95F
BRECKENRIDGE   SUNNY     78  68  71 S6        29.95F
COMANCHE       CLOUDY    78  68  70 S7        29.99S
$$

CENTRAL AND SOUTH CENTRAL TEXAS

CITY           SKY/WX    TMP DP  RH WIND       PRES   REMARKS
AUSTIN/BERGSTM PTCLDY    74  72  93 W3        29.99S
WACO           PTCLDY    78  71  79 S13       29.98S
HILLSBORO      CLOUDY    76  70  81 S9        29.98S
TEMPLE         CLEAR     75  72  90 SE5       30.01R
KILLEEN-GRAY   CLOUDY    75  69  81 S3        30.01R
FORT HOOD      PTCLDY    75  69  81 S5        29.99R
GEORGETOWN     CLOUDY    77  68  73 S8        29.99F
LAGO VISTA     PTSUNNY   76  69  77 SW5       30.02S
SAN MARCOS     CLOUDY    72  72 100 CALM      30.01F
NEW BRAUNFELS  PTCLDY    74  71  91 NW3       29.98S
RANDOLPH AFB   PTCLDY    72  72 100 N3        29.99S
SAN ANTONIO    MOCLDY    74  68  81 NW3       30.00F
STINSON        MOCLDY    75  71  87 N3        29.98S
PLEASANTON     NOT AVBL
LA GRANGE        N/A     79  78  96 CALM      29.97S
GIDDINGS       MOSUNNY   76  74  94 S6        30.02F
$$

EAST TEXAS

CITY           SKY/WX    TMP DP  RH WIND       PRES   REMARKS
PARIS          CLEAR     73  64  73 E6        29.99R
CLARKSVILLE    NOT AVBL
TYLER          PTCLDY    76  72  87 S8        29.99R
LONGVIEW       MOCLDY    73  72  96 CALM      30.00R
PALESTINE      MOSUNNY   75  74  97 SE3       30.00F
NACOGDOCHES    CLOUDY   N/A N/A N/A S5        29.99S
$$

TEXAS HILL COUNTRY AND EDWARDS PLATEAU

CITY           SKY/WX    TMP DP  RH WIND       PRES   REMARKS
LLANO          SUNNY     73  73 100 CALM      30.04S
HORSESHOE BAY  FAIR      75  68  79 S3        30.01S
KERRVILLE      CLOUDY    72  69  90 CALM      30.05F
FREDERICKSBRG  CLOUDY    71  65  82 SW5       30.03F
ROCKSPRINGS    PTSUNNY   70  66  88 S7        30.08F
HONDO          CLOUDY    71  70  96 N6        30.02S
UVALDE         CLOUDY    71  70  96 N3        30.02S
DEL RIO        PTCLDY    74  71  91 E7        29.99S
$$

SOUTHEAST TEXAS

CITY           SKY/WX    TMP DP  RH WIND       PRES   REMARKS
COLLEGE STN    MOCLDY    77  75  93 SE3       29.99S
CALDWELL       CLOUDY    75  75 100 CALM      30.02R
CROCKETT       MOSUNNY   73  73 100 MISG      30.03S
BRENHAM        PTCLDY    77  76  96 CALM      29.99S
HUNTSVILLE     CLOUDY    78  73  84 CALM      30.00R
CONROE         CLOUDY    75  74  96 CALM      29.99F
HOUSTON BUSH   CLOUDY    77  75  93 CALM      29.98F
HOUSTON HOBBY  MOCLDY    78  76  93 SE5       29.98F
PERLAND        CLEAR     79  76  90 CALM      30.00S
WHARTON        PTSUNNY   77  75  95 CALM      29.99S
$$

THE UPPER TEXAS COAST

CITY           SKY/WX    TMP DP  RH WIND       PRES   REMARKS
ORANGE         PTSUNNY   75  73  92 CALM      30.03S
PORT ARTHUR    PTCLDY    79  76  90 NE6       30.00S
GALVESTON      CLEAR     83  76  79 S8        30.00R
ANGLETON       CLEAR     78  75  90 CALM      29.98F FOG
BAY CITY       SUNNY     78  77  96 CALM      29.99S
$$

TEXAS COASTAL BEND, RIO GRANDE PLAINS DEEP SOUTH TEXAS

CITY           SKY/WX    TMP DP  RH WIND       PRES   REMARKS
VICTORIA       PTCLDY    75  74  96 S5        29.98S
BEEVILLE       FAIR      70  70 100 E5        29.98S
ROCKPORT       PTCLDY    84  76  76 S9        29.96S
PORT ARANSAS   MOSUNNY   83  78  85 S10       29.96S
PORT LAVACA    SUNNY     76  76  98 CALM      29.97F
CORPUS CHRISTI PTCLDY    79  77  94 S6        29.96F
KINGSVILLE NAS CLEAR     80  80 100 S9        29.96S
COTULLA        PTCLDY    76  72  87 E5        29.98R
LAREDO         PTCLDY    78  75  90 SE7       29.96S
BROWNSVILLE    PTCLDY    81  76  84 SE8       29.96F
PORT ISABEL    CLEAR     83  78  85 SE10      29.95F
HEBBRONVILLE   PTSUNNY   78  75  92 SE9       29.98S
MCALLEN        CLEAR     83  77  82 SE8       29.95F
WESLACO        CLEAR     76  42  28 SE6       29.94S
FALFURRIAS     SUNNY     78  75  92 E3        29.96S
EDINBURG       MOSUNNY   81  76  86 SE3       29.96S
$$




USA.gov is the U.S. government's official web portal to all federal, state and local government web resources and services.